This is the latest recevied weather packets stored in our database for station/object KA2FNK. If no packets are shown the sender has not sent any weather packets the latest 10 day(s).
| Time | Temp. | Humidity | Pressure | Rain* | Wind** | Luminosity | Snow |
|---|---|---|---|---|---|---|---|
| 1777978079 | 10° C | 80% | 1008.6 hPa | 0 mm | - | - | - |
| 1777977778 | 10° C | 80% | 1008.6 hPa | 0 mm | - | - | - |
| 1777977477 | 10° C | 82% | 1008.4 hPa | 0 mm | - | - | - |
| 1777977176 | 10° C | 83% | 1008.5 hPa | 0 mm | - | - | - |
| 1777976875 | 10° C | 83% | 1008.6 hPa | 0 mm | - | - | - |
| 1777976574 | 9.44° C | 84% | 1008.7 hPa | 0 mm | - | - | - |
| 1777976273 | 9.44° C | 85% | 1008.6 hPa | 0 mm | - | - | - |
| 1777975972 | 9.44° C | 85% | 1008.7 hPa | 0 mm | - | - | - |
| 1777975671 | 9.44° C | 85% | 1008.7 hPa | 0 mm | - | - | - |
| 1777975370 | 9.44° C | 86% | 1008.8 hPa | 0 mm | - | - | - |
| 1777975069 | 9.44° C | 86% | 1009.1 hPa | 0 mm | - | - | - |
| 1777974768 | 9.44° C | 86% | 1009.2 hPa | 0 mm | - | - | - |
| 1777974467 | 9.44° C | 86% | 1009 hPa | 0 mm | - | - | - |
| 1777974166 | 10° C | 85% | 1008.7 hPa | 0 mm | - | - | - |
| 1777973865 | 9.44° C | 84% | 1008.7 hPa | 0 mm | - | - | - |
| 1777973564 | 9.44° C | 84% | 1008.6 hPa | 0 mm | - | - | - |
| 1777973263 | 9.44° C | 85% | 1008.5 hPa | 0 mm | - | - | - |
| 1777972962 | 9.44° C | 84% | 1008.4 hPa | 0 mm | - | - | - |
| 1777972661 | 9.44° C | 85% | 1008.3 hPa | 0.25 mm | - | - | - |
| 1777972360 | 9.44° C | 85% | 1008.2 hPa | 0.25 mm | - | - | - |
| 1777972059 | 9.44° C | 86% | 1007.7 hPa | 0.76 mm | - | - | - |
| 1777971758 | 9.44° C | 85% | 1007.5 hPa | 1.52 mm | - | - | - |
| 1777971457 | 9.44° C | 85% | 1007.3 hPa | 1.78 mm | - | - | - |
| 1777971156 | 9.44° C | 85% | 1007.1 hPa | 2.29 mm | - | - | - |
| 1777970855 | 9.44° C | 85% | 1006.9 hPa | 2.79 mm | - | - | - |
* Rain latest hour (hover to see other rain measurements)
** Current wind speed in m/s (hover to see current wind gust speed)